Regional Weather Roundup
Issued by NWS Albany, NY

Home | Current Version | Previous Version | Text Only | Print | Product List | Glossary On
Versions: 1 2 3 4 5 6 7 8 9 10 11 12 13 14 15 16 17 18 19 20 21 22 23 24 25 26 27 28 29 30 31 32 33 34 35 36 37 38 39 40 41 42 43 44 45 46 47 48 49 50
000
ASUS41 KALY 180810
RWRALY

NEW YORK STATE HOURLY WEATHER ROUNDUP
NATIONAL WEATHER SERVICE ALBANY NY
400 AM EDT THU SEP 18 2014

NOTE: "FAIR" INDICATES FEW OR NO CLOUDS BELOW 12,000 FEET WITH NO
SIGNIFICANT WEATHER AND/OR NO OBSTRUCTIONS TO VISIBILITY.

NYZ032-033-038>043-046>054-057>066-NYZ062>081-180900-
EAST


CITY           SKY/WX    TMP DP  RH WIND       PRES   REMARKS
ALBANY         PTCLDY    49  45  86 S6        29.97S
GLENS FALLS    PTCLDY    45  43  93 CALM      29.95S
POUGHKEEPSIE   CLEAR     45  43  93 CALM      29.97S
NEWBURGH       CLEAR     46  46 100 CALM      29.98S
MONTGOMERY     FOG       42  40  92 S3        29.97S VSB 1
WHITE PLAINS   CLEAR     51  48  89 NW6       29.96R
ISLIP          CLEAR     53  49  86 CALM      29.94S
NEW YORK CITY  CLEAR     62  52  69 SW5       29.95S
CENTRAL PARK   CLEAR     62  51  67 VRB3      29.99S
$$

NYZ005>009-017-018-044>046-055-056-180900-
CENTRAL


CITY           SKY/WX    TMP DP  RH WIND       PRES   REMARKS
FULTON         PTCLDY    49  46  90 CALM      29.97S
SYRACUSE       PTCLDY    49  45  86 CALM      29.97S
ROME           CLEAR     44  42  93 CALM      29.99S
ELMIRA         FOG       47  47 100 SW5       30.00S VSB 1/2
BINGHAMTON     FAIR      49  47  93 NW3       29.98S
MONTICELLO     CLEAR     45  43  93 CALM      29.99S
$$

NYZ026>034-041>043-180900-
NORTH


CITY           SKY/WX    TMP DP  RH WIND       PRES   REMARKS
WATERTOWN      LGT RAIN  57  49  74 CALM      29.95S
FORT DRUM      NOT AVBL
MASSENA        CLOUDY    52  48  86 N5        29.97R
SARANAC LAKE   CLOUDY    50  46  86 SW7       29.93S
PLATTSBURGH    CLOUDY    51  48  89 CALM      29.91S
$$

NYZ001>004-010>016-019>021-180900-
WEST


CITY           SKY/WX    TMP DP  RH WIND       PRES   REMARKS
NIAGARA FALLS  CLEAR     49  44  83 N3        29.97F
BUFFALO        PTCLDY    51  48  89 SE5       29.98S
DUNKIRK        CLEAR     52  49  89 S7        29.99S
JAMESTOWN      CLOUDY    46  46 100 S3        30.01S VSB 1
WELLSVILLE     FOG       44  42  93 CALM      30.02S VSB 1/4
ROCHESTER      CLEAR     48  46  93 SW5       29.98S
PENN YAN       PTCLDY    52  50  93 SW6       29.99S
$$

             KEY
       WCI = WIND CHILL INDEX
       VSB = VISIBILITY
       HX  = HEAT INDEX
$$


USA.gov is the U.S. government's official web portal to all federal, state and local government web resources and services.